Regional Weather Roundup
Issued by NWS

Home | Current Version | Previous Version | Text Only | Print | Product List | Glossary On
Versions: 1 2 3 4 5 6 7 8 9 10 11 12 13 14 15 16 17 18 19 20 21 22 23 24 25 26 27 28 29 30 31 32 33 34 35 36 37 38 39 40 41 42 43 44 45 46 47 48 49 50
000
ASUS45 KREV 110010
RWRNV
NEVADA REGIONAL WEATHER ROUNDUP
NATIONAL WEATHER SERVICE RENO NV
500 PM PDT THU JUL 10 2014

NOTE: "FAIR" INDICATES FEW OR NO CLOUDS BELOW 12,000 FEET WITH NO
SIGNIFICANT WEATHER AND/OR OBSTRUCTIONS TO VISIBILITY.

NVZ001-003-004-110100-
WESTERN NEVADA

CITY           SKY/WX    TMP DP  RH WIND       PRES   REMARKS
RENO           PTSUNNY   89  43  20 SW15      29.94R
6HR MIN TEMP:  86; 6HR MAX TEMP:  97;

CARSON CITY    FAIR      82  45  26 W9        30.00S
SLIDE MTN        N/A     57  43  58 W1          N/A
PYRAMID LAKE     N/A     91 N/A N/A N3          N/A
FALLON         PTSUNNY   96  44  16 SW30G43   29.90R
6HR MIN TEMP:  87; 6HR MAX TEMP:  98;

LOVELOCK       PTSUNNY   92  37  14 N18       29.88S
6HR MIN TEMP:  87; 6HR MAX TEMP:  98;

HAWTHORNE      MOSUNNY   88  45  22 SW24G32   29.93R
$$

NVZ002-CAZ072-073-110100-
NORTHERN AND CENTRAL SIERRA

CITY           SKY/WX    TMP DP  RH WIND       PRES   REMARKS
S. LAKE TAHOE  PTSUNNY   80  39  23 CALM      30.11F
6HR MIN TEMP:  72; 6HR MAX TEMP:  83; 6HR PCP: TRACE;

TRUCKEE        CLOUDY    70  54  56 CALM      30.10R
                   6HR MAX TEMP:  84;

SQUAW VLY 8000 NOT AVBL
SUSANVILLE     SUNNY     95  32  11 NW9       29.91
BLUE CANYON    MOSUNNY   76  45  33 W8        30.10S
MAMMOTH LAKES  FAIR      73  37  27 SW7       30.16F
BRIDGEPORT     FAIR      70  47  43 CALM      30.15F
$$

NVZ030-031-036-110100-
NORTHERN NEVADA

CITY           SKY/WX    TMP DP  RH WIND       PRES   REMARKS
ELKO           LGT RAIN  71  55  56 SW15      30.01R
6HR MIN TEMP:  70; 6HR MAX TEMP:  93; 6HR PCP:  0.03;

WINNEMUCCA     MOSUNNY   95  34  11 W13G20    29.89F
6HR MIN TEMP:  88; 6HR MAX TEMP:  98;

WENDOVER       PTSUNNY   88  43  20 S23G30    29.89F
$$

NVZ035-037-110100-
CENTRAL NEVADA

CITY           SKY/WX    TMP DP  RH WIND       PRES   REMARKS
ELY            LGT RAIN  68  50  52 NW9       30.19R
6HR MIN TEMP:  68; 6HR MAX TEMP:  85; 6HR PCP: TRACE;

EUREKA           N/A     78  45  30 SW6       30.10F
6HR MIN TEMP:  65; 6HR MAX TEMP:  88; 6HR PCP:  0.06;

$$

NVZ013-014-110100-
SOUTH CENTRAL NEVADA

CITY           SKY/WX    TMP DP  RH WIND       PRES   REMARKS
TONOPAH        CLOUDY    89  34  14 SW10G18   30.01R
6HR MIN TEMP:  83; 6HR MAX TEMP:  92;

$$

NVZ017-020-022-110100-
SOUTHERN NEVADA

CITY           SKY/WX    TMP DP  RH WIND       PRES   REMARKS
LAS VEGAS      PTSUNNY   89  60  37 E14G25    29.85S
6HR MIN TEMP:  87; 6HR MAX TEMP:  94;

N. LAS VEGAS   PTSUNNY   87  58  37 SE17      29.88S
6HR MIN TEMP:  84; 6HR MAX TEMP:  94; 6HR PCP: TRACE;

NELLIS AFB     PTSUNNY   87  60  39 E20G26    29.87R
6HR MIN TEMP:  85; 6HR MAX TEMP:  27;

HENDERSON      PTSUNNY   88  57  34 SE15      29.91R
6HR MIN TEMP:  83; 6HR MAX TEMP:  96;

MERCURY        CLOUDY    93  37  14 S14       29.90F
6HR MIN TEMP:  88; 6HR MAX TEMP:  94;

$$


USA.gov is the U.S. government's official web portal to all federal, state and local government web resources and services.